Location: Cosy Dell
(34.2789°N, 117.4537°W)
Time: 00:52:02
(UTC+00:00)

BREEZE-M DEB (TANK) - Pass Details

Date: 14 July 2020
Orbit: 559 x 17160 km, 49.5° (Epoch: 11 August)

Event Time Altitude Azimuth Distance (km) Brightness Sun altitude
Rises 03:45:02 0° 313° (NW) 3,211 8.8 -8.3°
Reaches altitude 10° 03:47:40 10° 325° (NW) 1,948 6.9 -8.8°
Maximum altitude 03:50:57 33° 33° (NNE) 965 4.1 -9.4°
Enters shadow 03:54:41 10° 100° (E) 2,213 5.3 -10.0°
